Location: Devore Heights
(34.2372°N, 117.4156°W)
Time: 01:23:49
(UTC+00:00)

SR - Pass Details

Date: 14 September 2024
Orbit: 578 x 855 km, 66.7° (Epoch: 02 October)

Event Time Altitude Azimuth Distance (km) Brightness Sun altitude
Rises 06:21:06 0° 336° (NNW) 2,974 ? -47.7°
Enters shadow 06:21:37 - 336° (NNW) 2,772 ? -47.7°
Reaches altitude 10° 06:23:20 10° 339° (NNW) 2,100 - -47.9°
Maximum altitude 06:28:06 71° 63° (ENE) 753 - -48.4°
Drops below altitude 10° 06:33:16 10° 147° (SSE) 2,273 - -48.9°
Sets 06:35:45 0° 150° (SSE) 3,240 - -49.2°
